DMSP 5D-2 F13 DEB

Satellite information

Favourite Embed

Satellite Type and Status

DEBRISIN ORBIT

Key statistics

Satellite DMSP 5D-2 F13 DEB at a glance.

Uptime

11223

Days in orbit

Revolutions

≈ 14.4

Per day

Orbit

SSO

Sun Synchronous Orbit

Inclination

98.7

Latest

Satellite identification and parameters

Extended collection of information and parameters for DMSP 5D-2 F13 DEB.

Object identification

Identified? True

Debris? True

Object name: DMSP 5D-2 F13 DEB

International designator: 1995-015EQ

Object number (NORAD): 40581

Object ID (CCSDS): 40581

Country: UNITED STATES OF AMERICA (US)

Current information (Y/N): Y

RCS size: SMALL

Orbital parameters

Period: 100.34 minutes

Inclination: 98.7137 deg

SMA: 7152.78 km

Apoapsis: 789.515 km

Periapsis: 759.774 km

RAAN: 21.1171 deg

Eccentricy: 0.00207899

Argument of periapsis: 129.3062 deg

Mean anomaly: 230.997 deg

Mean motion: 14.35127549 rev/day

Mean motion (dot): 0.00008224 rev/day2

B* drag term: 0.0028857672 1/REarth

Two-line elements (TLE)

Creation date: Dec. 11, 2025, 7:14 p.m.

Reference frame: TEME

Reference center: EARTH

Epoch: Dec. 11, 2025, 1:05 p.m. UTC

TLE line 0: 0 DMSP 5D-2 F13 DEB

TLE line 1: 1 40581U 95015EQ 25345.54555712 .00008224 00000-0 28858-2 0 9990

TLE line 2: 2 40581 98.7137 21.1171 0020790 129.3062 230.9970 14.35127549553744

Live tracking on map

Real-time ground track for satellite DMSP 5D-2 F13 DEB.

In-orbit conjunctions

A list of the most updated potential collisions computed for object DMSP 5D-2 F13 DEB.

Target Orbit TCA Probability of collision Miss distance Type
COSMOS 2298 LEO 2025-11-03 04:56:49 0.0002134133 213.0 (m) PAYLOAD
COSMOS 1763 LEO 2025-02-24 01:10:42 0.0001146548 520.0 (m) PAYLOAD
CZ-6A DEB LEO 2025-01-03 16:28:26 0.0001394339 182.0 (m) DEBRIS

Associated space launch

Military meteorological satellite

DMSP 5D-2 F13 DEB was lifted into orbit during the mission ‘Atlas E | DMSP-5D2 F13’, on board a Atlas E space rocket.

The launch took place on March 24, 1995, 2:05 p.m. from Space Launch Complex 3W.

For more information about the launch, click the button.

Launch to space Atlas E | DMSP-5D2 F13
Atlas E | DMSP-5D2 F13

Agency: N/A

Status: Launch Successful

Launch date: March 24, 1995, 2:05 p.m. UTC

Rocket: Atlas E

Launch pad: Space Launch Complex 3W

Location: Vandenberg SFB, CA, USA

...

Latest news about this satellite

There are no fresh news available about this satellite. Check back as we update our databases every day.


Newsletter sign-up

Weekly statistics, charts and insights to help you stay on top of the space industry.